Regional Weather Roundup
Issued by NWS Kansas City/Pleasant Hill, MO

Home | Current Version | Previous Version | Graphics & Text | Print | Product List | Glossary Off
Versions: 1 2 3 4 5 6 7 8 9 10 11 12 13 14 15 16 17 18 19 20 21 22 23 24 25 26 27

000
ASUS43 KEAX 190910
RWREAX

WEATHER ROUNDUP FOR EASTERN KANSAS AND NORTHWEST MISSOURI
NATIONAL WEATHER SERVICE KANSAS CITY/PLEASANT HILL MO
300 AM CST SUN FEB 19 2017

KSZ040-057-103>105-MOZ028-029-037-043-191000-
...KANSAS CITY METROPOLITAN AREA...

CITY           SKY/WX    TMP DP  RH WIND       PRES   REMARKS
K.C. INTL      CLEAR     48  47  96 S7        29.90R
K.C. DOWNTOWN  CLEAR     53  49  86 SW3       29.90R
LEES SUMMIT    CLEAR     50  49  96 SW3       29.91S
OLATHE - IXD   FOG       44  44 100 S3        29.91F VSB 1/4
OLATHE - OJC   CLEAR     46  46 100 CALM      29.90S FOG
LAWRENCE       PTCLDY    41  41 100 E6        29.90S FOG

$$

MOZ001>008-011>017-020>025-030>033-038>040-044>046-053-054-191000-
...NORTHERN AND CENTRAL MISSOURI...

CITY           SKY/WX    TMP DP  RH WIND       PRES   REMARKS
ST. JOSEPH     CLEAR     38  34  85 CALM      29.89S
WARRENSBURG      N/A     46  45  93 S3        29.92R FOG
WHITEMAN AFB   FOG       46  46 100 S3        29.91S VSB 1/2
CLINTON        FOG       39  39 100 CALM      29.93R VSB<1/4
SEDALIA        CLEAR     52  48  86 CALM      29.93R
WARSAW         NOT AVBL
CHILLICOTHE      N/A     40  35  83 CALM      29.93R
KIRKSVILLE     CLEAR     38  33  82 CALM      29.93R

$$

MOZ041-047>049-056>058-063>065-088>090-097-191000-
...EASTERN AND SOUTHERN MISSOURI...

CITY           SKY/WX    TMP DP  RH WIND       PRES   REMARKS
ST. LOUIS INTL CLEAR     50  47  89 CALM      29.95R
SPIRIT OF STL  FOG       43  43 100 CALM      29.94R VSB 1/2
COLUMBIA       CLEAR     49  45  86 SE5       29.93R
JEFFERSON CITY CLEAR     39  38  96 SE3       29.94R
ROLLA          FOG       48  48 100 S9        29.93S VSB 1/4
OSAGE BEACH    CLEAR     48  46  93 S3        29.94R
SPRINGFIELD    CLEAR     46  44  93 SE9       29.92R
BRANSON        CLEAR     48  46  93 CALM      29.95R
JOPLIN         CLEAR     47  47 100 S5        29.93R FOG
WEST PLAINS    FOG       43  42  97 CALM      29.95F VSB 1/4

$$

IAZ060-094-KSZ022-034>040-054-083-096-NEZ052-066-093-191000-
...KANSAS...SOUTHEAST NEBRASKA AND IOWA...

CITY           SKY/WX    TMP DP  RH WIND       PRES   REMARKS
TOPEKA         CLEAR     45  42  89 E7        29.86F
MANHATTAN      MOCLDY    47  44  90 CALM      29.87R
EMPORIA        CLOUDY    44  44 100 SW6       29.89R FOG
CHANUTE        FOG       42  41  96 SE6       29.91S VSB 1/4
WICHITA        PTCLDY    43  42  97 S5        29.88R
OMAHA          MOCLDY    43  34  70 S3        29.84R
LINCOLN        CLOUDY    38  30  73 CALM      29.85R
FALLS CITY     CLEAR     50  45  83 SW9       29.85F
LAMONI         CLEAR     47  32  56 SE7       29.89S
DES MOINES     CLEAR     47  37  68 SE6       29.90S

$$





USA.gov is the U.S. government's official web portal to all federal, state and local government web resources and services.